Weather History for KBEH - April, 2013

Change the Weather History Date:

Monday, April 29, 2013

  Actual Average Record
Temperature  
Mean Temperature 54 °F -  
Max Temperature 72 °F 61 °F 82 °F (1970)
Min Temperature 39 °F 41 °F 27 °F (1979)
Degree Days  
Heating Degree Days 10    
Growing Degree Days 4 (Base 50)    
Moisture  
Dew Point 46 °F    
Average Humidity 84    
Maximum Humidity 100    
Minimum Humidity 51    
Precipitation  
Precipitation 0.01 in - - ()
Sea Level Pressure  
Sea Level Pressure 29.88 in    
Wind  
Wind Speed 3 mph (SW)    
Max Wind Speed 15 mph    
Max Gust Speed 20 mph    
Visibility 4 miles    
Events Fog    
Averages and records for this station are not official NWS values.
T = Trace of Precipitation, MM = Missing Value Source: NWS Daily Summary

Daily Weather History Graph

Daily Weather History Graph

Search for Another Location

Airport or City:

Trip Planner

Search our weather history database for the weather conditions in past years. The results will help you decide how hot, cold, wet, or windy it might be!

Date:

Astronomy

Apr. 29, 2013 Rise Set
Actual Time 6:43 AM EDT 8:42 PM EDT
Civil Twilight 6:13 AM EDT 9:13 PM EDT
Nautical Twilight 5:36 AM EDT 9:50 PM EDT
Astronomical Twilight 4:56 AM EDT 10:31 PM EDT
Moon 12:13 AM EDT (4/29) 10:02 AM EDT (4/29)
Length of Visible Light 14h 59m
Length of Day
13h 59m
Waning Gibbous, 80% of the Moon is Illuminated
Apr 29
Waning Gibbous
May 2
Last Quarter
May 9
New
May 18
First Quarter
May 25
Full

Hourly Weather History & Observations

Time (EDT) Temp. Windchill Dew Point Humidity Pressure Visibility Wind Dir Wind Speed Gust Speed Precip Events Conditions
12:07 AM 46.4 °F - 44.6 °F 93% 29.87 in 3.0 mi Calm Calm - N/A   Clear
12:18 AM 44.6 °F - 44.6 °F 100% 29.86 in 2.5 mi Calm Calm - N/A   Clear
12:53 AM 45.0 °F - 44.1 °F 97% 29.87 in 2.0 mi Calm Calm - N/A   Clear
1:05 AM 44.6 °F - 42.8 °F 93% 29.87 in 1.8 mi Calm Calm - N/A   Clear
1:11 AM 44.6 °F - 42.8 °F 93% 29.86 in 3.0 mi Calm Calm - N/A   Clear
1:24 AM 42.8 °F 40.1 °F 42.8 °F 100% 29.87 in 2.5 mi West 4.6 mph - N/A   Clear
1:47 AM 42.8 °F 40.1 °F 42.8 °F 100% 29.88 in 1.2 mi West 4.6 mph - N/A   Clear
1:48 AM 43.0 °F 40.3 °F 42.1 °F 97% 29.88 in 1.0 mi West 4.6 mph - N/A   Clear
1:50 AM 42.8 °F 41.1 °F 42.8 °F 100% 29.88 in 0.5 mi West 3.5 mph - N/A Fog Fog
2:06 AM 44.6 °F 43.1 °F 44.6 °F 100% 29.88 in 0.2 mi West 3.5 mph - N/A Fog Fog
2:53 AM 43.0 °F - 42.1 °F 97% 29.88 in 0.2 mi Calm Calm - N/A Fog Fog
3:29 AM 42.8 °F - 41.0 °F 93% 29.87 in 0.5 mi Calm Calm - N/A Fog Fog
3:36 AM 42.8 °F - 42.8 °F 100% 29.87 in 0.5 mi Calm Calm - N/A Fog Fog
3:53 AM 42.1 °F - 41.0 °F 96% 29.87 in 0.2 mi Calm Calm - N/A Fog Fog
4:09 AM 42.8 °F - 41.0 °F 93% 29.87 in 1.0 mi Calm Calm - N/A   Mist
4:13 AM 41.0 °F - 39.2 °F 93% 29.87 in 2.0 mi Calm Calm - N/A   Overcast
4:33 AM 39.2 °F 37.0 °F 39.2 °F 100% 29.86 in 1.2 mi East 3.5 mph - N/A   Overcast
4:37 AM 39.2 °F 37.0 °F 39.2 °F 100% 29.86 in 0.5 mi East 3.5 mph - N/A Fog Fog
4:53 AM 41.0 °F - 39.9 °F 96% 29.87 in 0.2 mi Calm Calm - N/A Fog Fog
5:53 AM 39.9 °F - 39.9 °F 100% 29.89 in 0.5 mi Calm Calm - N/A Fog Fog
6:53 AM 41.0 °F - 39.9 °F 96% 29.91 in 0.2 mi Calm Calm - N/A Fog Fog
7:33 AM 44.6 °F - 44.6 °F 100% 29.91 in 0.8 mi Calm Calm - 0.01 in   Mist
7:40 AM 44.6 °F - 44.6 °F 100% 29.91 in 1.5 mi Calm Calm - 0.01 in   Mostly Cloudy
7:48 AM 44.6 °F - 44.6 °F 100% 29.92 in 2.5 mi Calm Calm - 0.01 in   Scattered Clouds
7:49 AM 46.0 °F - 45.0 °F 96% 29.92 in 2.5 mi Calm Calm - 0.01 in   Scattered Clouds
8:42 AM 53.6 °F - 51.8 °F 94% 29.93 in 3.0 mi WSW 9.2 mph - N/A   Clear
8:53 AM 54.0 °F - 52.0 °F 93% 29.94 in 4.0 mi WSW 11.5 mph - N/A   Clear
9:53 AM 57.9 °F - 52.0 °F 81% 29.93 in 8.0 mi WSW 10.4 mph - N/A   Clear
10:53 AM 62.1 °F - 52.0 °F 70% 29.93 in 10.0 mi WSW 9.2 mph - N/A   Clear
11:53 AM 64.0 °F - 51.1 °F 63% 29.93 in 10.0 mi WSW 12.7 mph - N/A   Clear
12:53 PM 66.9 °F - 51.1 °F 57% 29.91 in 10.0 mi WSW 9.2 mph - N/A   Clear
1:53 PM 69.1 °F - 51.1 °F 53% 29.89 in 10.0 mi West 11.5 mph - N/A   Clear
2:53 PM 69.1 °F - 52.0 °F 54% 29.88 in 10.0 mi West 9.2 mph - N/A   Clear
3:53 PM 70.0 °F - 52.0 °F 53% 29.88 in 10.0 mi West 13.8 mph - N/A   Scattered Clouds
4:53 PM 68.0 °F - 51.1 °F 55% 29.86 in 10.0 mi West 8.1 mph - N/A   Mostly Cloudy
5:53 PM 69.1 °F - 50.0 °F 51% 29.85 in 10.0 mi South 13.8 mph - N/A   Partly Cloudy
6:53 PM 69.1 °F - 50.0 °F 51% 29.84 in 10.0 mi South 15.0 mph 19.6 mph N/A   Clear
7:53 PM 68.0 °F - 51.1 °F 55% 29.85 in 10.0 mi South 9.2 mph 16.1 mph N/A   Clear
8:53 PM 66.9 °F - 51.1 °F 57% 29.84 in 10.0 mi SSE 11.5 mph - N/A   Clear
9:53 PM 64.9 °F - 51.1 °F 61% 29.86 in 10.0 mi SSE 9.2 mph - N/A   Mostly Cloudy
10:53 PM 64.0 °F - 52.0 °F 65% 29.86 in 10.0 mi SSE 9.2 mph - N/A   Clear
11:53 PM 63.0 °F - 52.0 °F 67% 29.86 in 10.0 mi SSE 8.1 mph - N/A   Clear